CW1780 Weather Reports


time (UTC)temp
C
wind
direction
speed
KPH
gust
KPH
rain 1hr
cm
rain 24hr
cm
rain mn
cm
humidity
%
barometer
mb
20260906110003 18 0 0.0 0.0 0.00 0.41 0.03 95 1014.5
20260906105003 18 0 0.0 0.0 0.00 0.41 0.03 95 1014.7
20260906104003 18 0 0.0 0.0 0.00 0.41 0.03 95 1014.7
20260906103003 18 0 0.0 0.0 0.00 0.41 0.03 95 1014.7
20260906102003 18 0 0.0 0.0 0.00 0.41 0.03 95 1014.7
20260906101003 18 0 0.0 0.0 0.00 0.41 0.03 95 1014.6
20260906100003 18 213 0.0 1.6 0.00 0.41 0.03 95 1014.7
20260906095003 18 213 0.0 3.2 0.03 0.41 0.03 95 1014.7
20260906094003 18 213 0.0 1.6 0.03 0.41 0.03 95 1014.3
20260906093003 18 213 0.0 1.6 0.03 0.41 0.03 95 1014.4
20260906092003 18 0 0.0 0.0 0.03 0.41 0.03 95 1014.1
20260906091003 18 0 0.0 0.0 0.03 0.41 0.03 95 1014.3
20260906090024 17 0 0.0 0.0 0.03 0.41 0.03 95 1014.0
20260906085003 18 0 0.0 0.0 0.00 0.38 0.00 95 1014.2
20260906084003 18 0 0.0 0.0 0.00 0.38 0.00 95 1014.2
20260906083024 18 0 0.0 0.0 0.00 0.38 0.00 95 1014.2
20260906082024 18 0 0.0 0.0 0.00 0.38 0.00 95 1014.1
20260906081003 18 0 0.0 0.0 0.00 0.38 0.00 95 1013.9
20260906080003 18 0 0.0 0.0 0.00 0.38 0.00 95 1014.1
20260906075003 18 0 0.0 0.0 0.00 0.38 0.00 95 1014.2
20260906074024 18 0 0.0 0.0 0.00 0.38 0.00 95 1014.4
20260906073025 18 0 0.0 0.0 0.00 0.38 0.00 95 1014.4
20260906072004 18 0 0.0 0.0 0.00 0.38 0.00 95 1014.4
20260906071025 18 0 0.0 0.0 0.00 0.38 0.00 95 1014.2
20260906070004 18 0 0.0 0.0 0.00 0.38 0.00 95 1014.3
20260906065004 18 0 0.0 0.0 0.00 0.38 0.00 94 1014.3
20260906064024 18 0 0.0 0.0 0.00 0.38 0.00 94 1014.2
20260906063003 18 0 0.0 0.0 0.00 0.38 0.00 94 1014.3
20260906062003 18 0 0.0 0.0 0.00 0.38 0.00 94 1014.6
20260906061003 18 0 0.0 0.0 0.00 0.38 0.00 94 1014.9
20260906060003 18 0 0.0 0.0 0.00 0.38 0.00 94 1014.9
20260906055003 18 0 0.0 0.0 0.00 0.38 0.00 94 1015.0
20260906054003 18 0 0.0 0.0 0.00 0.38 0.00 94 1015.0
20260906053024 19 0 0.0 0.0 0.00 0.38 0.00 94 1015.1
20260906052003 19 213 0.0 3.2 0.00 0.38 0.00 94 1015.0
20260906051003 19 0 0.0 0.0 0.00 0.38 0.00 94 1015.2
20260906050003 19 0 0.0 0.0 0.00 0.38 0.00 94 1015.0
20260906045003 19 0 0.0 0.0 0.00 0.38 0.00 94 1015.0
20260906044024 19 0 0.0 0.0 0.00 0.38 0.00 94 1014.8
20260906043003 19 0 0.0 0.0 0.00 0.38 0.00 94 1014.9
20260906042003 19 0 0.0 0.0 0.00 0.38 0.00 94 1015.0
20260906041003 19 0 0.0 0.0 0.00 0.38 0.00 94 1015.0
20260906040004 19 0 0.0 0.0 0.00 0.38 0.00 94 1014.7
20260906035004 19 0 0.0 0.0 0.00 0.38 0.38 94 1014.8
20260906034004 19 0 0.0 0.0 0.00 0.38 0.38 94 1014.9
20260906033003 19 0 0.0 0.0 0.00 0.38 0.38 93 1015.0
20260906032003 19 0 0.0 0.0 0.00 0.38 0.38 93 1015.1
20260906031003 20 0 0.0 0.0 0.00 0.38 0.38 93 1015.3
20260906030003 20 0 0.0 0.0 0.00 0.38 0.38 93 1015.3
20260906025003 20 0 0.0 0.0 0.00 0.38 0.38 93 1015.5
20260906024003 20 0 0.0 0.0 0.00 0.38 0.38 92 1015.6
20260906023003 20 0 0.0 0.0 0.00 0.38 0.38 92 1015.7
20260906022003 20 0 0.0 0.0 0.00 0.38 0.38 92 1015.6
20260906021003 20 0 0.0 0.0 0.00 0.38 0.38 92 1015.5
20260906020025 20 0 0.0 0.0 0.00 0.38 0.38 92 1015.5
20260906015004 20 0 0.0 0.0 0.00 0.38 0.38 91 1015.5
20260906014003 21 0 0.0 0.0 0.00 0.38 0.38 91 1015.4
20260906013003 21 0 0.0 0.0 0.00 0.38 0.38 91 1015.2
20260906012003 21 0 0.0 0.0 0.13 0.38 0.38 90 1015.2
20260906011004 21 0 0.0 0.0 0.13 0.38 0.38 89 1015.0
20260906010003 21 0 0.0 0.0 0.13 0.38 0.38 89 1015.0
20260906005003 22 0 0.0 0.0 0.13 0.38 0.38 88 1014.8
20260906004003 22 0 0.0 0.0 0.13 0.38 0.38 85 1014.8
20260906003004 23 212 0.0 1.6 0.13 0.38 0.38 83 1014.8
20260906002024 23 0 0.0 0.0 0.00 0.25 0.28 82 1014.8
20260906001003 24 0 0.0 0.0 0.00 0.25 0.25 80 1014.3
20260906000024 24 0 0.0 0.0 0.00 0.25 0.25 79 1014.4
20260905235024 24 0 0.0 0.0 0.00 0.25 0.25 78 1014.3
20260905234003 25 212 0.0 1.6 0.00 0.25 0.25 77 1014.3
20260905233024 25 212 0.0 1.6 0.00 0.25 0.25 76 1014.3
20260905232003 25 176 0.0 6.4 0.00 0.25 0.25 75 1014.3
20260905231003 26 127 0.0 3.2 0.00 0.25 0.25 73 1014.1
20260905230024 26 126 0.0 4.8 0.00 0.25 0.25 71 1014.2
20260905225003 27 127 0.0 3.2 0.00 0.25 0.25 68 1014.3
20260905224024 27 127 0.0 3.2 0.00 0.25 0.25 66 1014.5
20260905223003 28 122 0.0 3.2 0.00 0.25 0.25 60 1014.4
20260905222003 28 119 0.0 4.8 0.00 0.25 0.25 64 1014.4
20260905221003 28 121 0.0 4.8 0.00 0.25 0.25 65 1014.3
20260905220004 28 352 1.6 4.8 0.00 0.25 0.25 64 1014.3
20260905215003 28 59 0.0 8.0 0.00 0.25 0.25 63 1014.2
20260905214003 28 100 0.0 8.0 0.00 0.25 0.25 64 1014.2
20260905213003 28 248 1.6 4.8 0.00 0.25 0.25 64 1014.2
20260905212003 28 291 0.0 6.4 0.00 0.25 0.25 64 1014.1
20260905211003 28 193 0.0 4.8 0.00 0.25 0.25 66 1014.0
20260905210004 27 340 1.6 4.8 0.00 0.25 0.25 67 1013.9
20260905205003 27 344 0.0 11.3 0.00 0.25 0.25 64 1013.8
20260905204003 27 169 0.0 4.8 0.00 0.25 0.25 66 1013.9
20260905203024 27 175 0.0 3.2 0.00 0.25 0.25 66 1013.9
20260905202003 26 144 0.0 3.2 0.00 0.25 0.25 68 1013.9
20260905201003 26 145 0.0 4.8 0.00 0.25 0.25 72 1013.7
20260905200003 25 255 0.0 3.2 0.00 0.25 0.25 74 1013.9
20260905195004 25 208 0.0 6.4 0.00 0.25 0.25 73 1014.0
20260905194003 24 172 1.6 6.4 0.00 0.25 0.25 75 1013.9
20260905193003 23 292 0.0 8.0 0.00 0.25 0.25 76 1014.0
20260905192024 23 98 0.0 8.0 0.00 0.25 0.25 78 1014.1
20260905191004 23 140 1.6 6.4 0.00 0.25 0.25 81 1014.2
20260905190024 22 144 1.6 9.7 0.00 0.25 0.25 82 1014.4
20260905185003 22 192 1.6 4.8 0.00 0.25 0.25 83 1014.5
20260905184003 22 91 1.6 9.7 0.00 0.25 0.25 83 1014.7
20260905183003 22 102 1.6 4.8 0.00 0.25 0.25 86 1014.8
20260905182003 21 94 1.6 11.3 0.00 0.25 0.25 86 1015.1
20260905181024 21 111 1.6 11.3 0.00 0.25 0.25 89 1015.2
20260905180004 21 16 0.0 8.0 0.03 0.25 0.25 90 1015.2
20260905175004 20 314 0.0 4.8 0.08 0.25 0.25 91 1015.4
20260905174024 20 313 0.0 1.6 0.08 0.25 0.25 92 1015.5
20260905173003 20 313 0.0 1.6 0.10 0.25 0.25 91 1015.6
20260905172003 20 313 0.0 1.6 0.10 0.25 0.25 90 1016.2
20260905171003 21 295 1.6 8.0 0.10 0.25 0.25 88 1016.7
20260905170003 21 240 0.0 3.2 0.08 0.23 0.23 89 1017.1
20260905165024 21 240 0.0 1.6 0.18 0.18 0.18 89 1017.6
20260905164003 22 240 0.0 1.6 0.18 0.18 0.18 88 1017.9
20260905163024 22 0 0.0 0.0 0.15 0.15 0.15 88 1018.3
20260905162003 23 240 0.0 1.6 0.15 0.15 0.15 86 1018.1
20260905161003 24 240 0.0 4.8 0.15 0.15 0.15 82 1017.4
20260905160003 25 46 1.6 12.9 0.15 0.15 0.15 77 1017.4
20260905155003 27 106 0.0 8.0 0.00 0.00 0.00 70 1016.9
20260905154003 27 83 0.0 4.8 0.00 0.00 0.00 72 1016.4
20260905153003 28 85 1.6 4.8 0.00 0.00 0.00 71 1016.5
20260905152003 27 150 0.0 4.8 0.00 0.00 0.00 72 1016.5
20260905151024 27 130 0.0 4.8 0.00 0.00 0.00 75 1016.6
20260905150003 27 119 1.6 8.0 0.00 0.00 0.00 75 1016.6
20260905145003 26 126 0.0 6.4 0.00 0.00 0.00 75 1016.2
20260905144003 26 194 0.0 4.8 0.00 0.00 0.00 76 1016.4
20260905143003 26 118 0.0 8.0 0.00 0.00 0.00 77 1016.5
20260905142024 26 89 1.6 8.0 0.00 0.00 0.00 78 1016.4
20260905141003 25 117 1.6 12.9 0.00 0.00 0.00 79 1016.5
20260905140004 25 77 1.6 4.8 0.00 0.00 0.00 81 1016.6
20260905135003 25 129 1.6 12.9 0.00 0.00 0.00 81 1016.5
20260905134003 24 131 1.6 3.2 0.00 0.00 0.00 84 1016.5
20260905133003 23 107 0.0 6.4 0.00 0.00 0.00 85 1016.3
20260905132003 22 113 0.0 3.2 0.00 0.00 0.00 87 1016.4
20260905131003 22 83 0.0 8.0 0.00 0.00 0.00 87 1016.5
20260905130024 21 106 0.0 4.8 0.00 0.00 0.00 89 1016.6
20260905125003 21 106 0.0 6.4 0.00 0.00 0.00 90 1016.7
20260905124025 20 136 0.0 3.2 0.00 0.00 0.00 92 1016.6
20260905123003 20 0 0.0 0.0 0.00 0.00 0.00 93 1016.4
20260905122025 20 0 0.0 0.0 0.00 0.00 0.00 94 1016.4
20260905121003 19 0 0.0 0.0 0.00 0.00 0.00 94 1016.4
20260905120003 18 0 0.0 0.0 0.00 0.00 0.00 94 1016.5
20260905115003 18 0 0.0 0.0 0.00 0.00 0.00 94 1016.6
20260905114024 18 0 0.0 0.0 0.00 0.00 0.00 94 1016.5
20260905113003 18 0 0.0 0.0 0.00 0.00 0.00 94 1016.4
20260905112003 18 306 0.0 3.2 0.00 0.00 0.00 94 1016.3
20260905111003 18 306 0.0 1.6 0.00 0.00 0.00 94 1016.4